Location: Unspecified
(0.0000°N, 0.0000°E)
Time: 07:42:37
(UTC+00:00)

CUTE-I - Pass Details

Date: 27 May 2019
Orbit: 810 x 825 km, 98.7° (Epoch: 25 June)

Event Time Altitude Azimuth Distance (km) Brightness Sun altitude
Rises 18:24:53 0° 181° (S) 3,355 ? -6.4°
Reaches altitude 10° 18:27:21 10° 187° (S) 2,418 ? -7.0°
Maximum altitude 18:32:23 42° 257° (WSW) 1,145 ? -8.2°
Drops below altitude 10° 18:37:23 10° 328° (NNW) 2,400 ? -9.4°
Sets 18:39:50 0° 334° (NNW) 3,327 ? -9.9°
